Location: Unspecified
(0.0000°N, 0.0000°E)
Time: 01:25:20
(UTC+00:00)

S-56A Canister/Altair - Pass Details

Date: 23 November 2019
Orbit: 633 x 2499 km, 38.9° (Epoch: 10 December)

Event Time Altitude Azimuth Distance (km) Brightness Sun altitude
Rises 02:17:45 0° 261° (W) 3,052 - -47.8°
Reaches altitude 10° 02:22:13 10° 221° (SW) 2,387 - -46.8°
Maximum altitude 02:23:26 11° 208° (SSW) 2,423 - -46.5°
Drops below altitude 10° 02:24:43 10° 196° (SSW) 2,566 - -46.3°
Exits shadow 02:27:02 - 177° (S) 3,027 10.8 -45.8°
Sets 02:30:33 0° 160° (SSE) 4,004 11.7 -45.0°
